This is the latest recevied weather packets stored in our database for station/object N3TJJ-11. If no packets are shown the sender has not sent any weather packets the latest 1 day(s).
| Time | Temp. | Humidity | Pressure | Rain* | Wind** | Luminosity | Snow |
|---|---|---|---|---|---|---|---|
| 1778003027 | 24.44° C | 48% | 1007.9 hPa | 0 mm | 3.58 m/s, 253° | - | - |
| 1778002544 | 24.44° C | 49% | 1007.9 hPa | 0 mm | 4.02 m/s, 245° | - | - |
| 1778002427 | 23.89° C | 48% | 1008 hPa | 0 mm | 4.02 m/s, 192° | - | - |
| 1778001824 | 24.44° C | 49% | 1008 hPa | 0 mm | 4.02 m/s, 230° | - | - |
| 1778001225 | 24.44° C | 50% | 1008 hPa | 0 mm | 3.58 m/s, 217° | - | - |
| 1778001104 | 24.44° C | 50% | 1008.1 hPa | 0 mm | 4.02 m/s, 177° | - | - |
| 1778000625 | 24.44° C | 50% | 1008.4 hPa | 0 mm | 4.02 m/s, 158° | - | - |
| 1778000384 | 24.44° C | 49% | 1008.4 hPa | 0 mm | 3.58 m/s, 209° | - | - |
| 1778000025 | 24.44° C | 49% | 1008.5 hPa | 0 mm | 3.13 m/s, 231° | - | - |
| 1777999664 | 24.44° C | 48% | 1008.5 hPa | 0 mm | 4.47 m/s, 234° | - | - |
| 1777999425 | 24.44° C | 48% | 1008.4 hPa | 0 mm | 4.92 m/s, 196° | - | - |
| 1777998944 | 24.44° C | 42% | 1008.5 hPa | 0 mm | 4.92 m/s, 225° | - | - |
| 1777998825 | 24.44° C | 43% | 1008.5 hPa | 0 mm | 4.92 m/s, 246° | - | - |
| 1777998224 | 23.89° C | 45% | 1008.6 hPa | 0 mm | 4.92 m/s, 215° | - | - |
| 1777997625 | 23.89° C | 43% | 1008.7 hPa | 0 mm | 5.81 m/s, 253° | - | - |
| 1777997504 | 23.89° C | 44% | 1008.7 hPa | 0 mm | 5.81 m/s, 249° | - | - |
| 1777997025 | 23.89° C | 45% | 1008.7 hPa | 0 mm | 4.47 m/s, 219° | - | - |
| 1777996784 | 23.89° C | 47% | 1008.8 hPa | 0 mm | 4.02 m/s, 232° | - | - |
| 1777996425 | 23.89° C | 48% | 1008.8 hPa | 0 mm | 4.47 m/s, 232° | - | - |
| 1777996064 | 23.89° C | 47% | 1008.9 hPa | 0 mm | 4.92 m/s, 202° | - | - |
| 1777995825 | 23.89° C | 47% | 1008.9 hPa | 0 mm | 4.92 m/s, 248° | - | - |
| 1777995344 | 23.33° C | 48% | 1008.7 hPa | 0 mm | 4.47 m/s, 230° | - | - |
| 1777995228 | 23.33° C | 47% | 1008.8 hPa | 0 mm | 4.47 m/s, 241° | - | - |
| 1777994624 | 23.33° C | 49% | 1008.9 hPa | 0 mm | 4.47 m/s, 267° | - | - |
| 1777994025 | 23.33° C | 51% | 1009 hPa | 0 mm | 4.47 m/s, 250° | - | - |
* Rain latest hour (hover to see other rain measurements)
** Current wind speed in m/s (hover to see current wind gust speed)